Terug naar catalogus

STARLINK-34396

ActiefCommunicatieVLEO
NORAD 64436·PAYLOAD·🇺🇸 United States

Gelanceerd Jun 17, 2025 vanaf Vandenberg Space Force Base

Loading…

Volgende Passages (komende 24 uur)

TLE

VersSource: CelesTrak SupGP

Epoch: Sep 15, 2026, 03:49 UTC

1 64436C 25129AA  26258.15951389  .00025115  00000+0  87301-3 0  2589
2 64436  69.9992 315.2794 0003448 265.9675 120.4877 15.29589769    10

Volg STARLINK-34396 in realtime met AllMySat

Download on the App Store